Miles City, MT

4:51 AM MDT on August 27, 2016 (GMT -0600)
Wiley

Weather History for KMLS - March, 2013

Change the Weather History Date:

Sunday, March 17, 2013

  Actual Average Record
Temperature  
Mean Temperature 25 °F 35 °F  
Max Temperature 36 °F 47 °F 71 °F (2010)
Min Temperature 13 °F 23 °F -7 °F (1965)
Degree Days  
Heating Degree Days 40 30  
Month to date heating degree days 523 563  
Since 1 July heating degree days 5717 6297  
Cooling Degree Days 0 0  
Month to date cooling degree days 0 0  
Year to date cooling degree days 0 0  
Moisture  
Dew Point 23 °F    
Average Humidity 80    
Maximum Humidity 92    
Minimum Humidity 67    
Precipitation  
Precipitation 0.05 in 0.02 in 0.56 in (1944)
Month to date precipitation 0.22 0.26  
Year to date precipitation 0.41 0.81  
Sea Level Pressure  
Sea Level Pressure 29.63 in    
Wind  
Wind Speed 18 mph (NW)    
Max Wind Speed 41 mph    
Max Gust Speed 52 mph    
Visibility 7 miles    
Events Fog , Snow    
T = Trace of Precipitation, MM = Missing Value Source: NWS Daily Summary

Daily Weather History Graph

Daily Weather History Graph

Search for Another Location

Airport or City:

Trip Planner

Search our weather history database for the weather conditions in past years. The results will help you decide how hot, cold, wet, or windy it might be!

Date:

Astronomy

Mar. 17, 2013 Rise Set
Actual Time 7:11 AM MDT 7:12 PM MDT
Civil Twilight 6:41 AM MDT 7:42 PM MDT
Nautical Twilight 6:06 AM MDT 8:17 PM MDT
Astronomical Twilight 5:30 AM MDT 8:53 PM MDT
Moon 10:07 AM MDT (3/17) 12:41 AM MDT (3/17)
Length of Visible Light 13h 00m
Length of Day
12h 00m
Waxing Crescent, 32% of the Moon is Illuminated
Mar 17
Waxing Crescent
Mar 19
First Quarter
Mar 27
Full
Apr 2
Last Quarter
Apr 10
New

Hourly Weather History & Observations

Time (MDT) Temp. Windchill Dew Point Humidity Pressure Visibility Wind Dir Wind Speed Gust Speed Precip Events Conditions
12:40 AM 24.8 °F 16.1 °F 21.2 °F 86% 29.73 in 10.0 mi ENE 8.1 mph - N/A   Overcast
12:53 AM 25.0 °F 17.1 °F 21.0 °F 85% 29.82 in 10.0 mi NE 6.9 mph - N/A   Overcast
1:53 AM 30.9 °F 22.8 °F 27.0 °F 85% 29.76 in 10.0 mi ESE 9.2 mph - N/A   Overcast
2:53 AM 33.1 °F 24.9 °F 28.9 °F 85% 29.70 in 10.0 mi SE 10.4 mph - N/A   Overcast
3:53 AM 33.1 °F 24.9 °F 28.9 °F 85% 29.66 in 10.0 mi SE 10.4 mph - N/A   Overcast
4:18 AM 33.8 °F 23.9 °F 28.4 °F 81% 29.56 in 10.0 mi ESE 15.0 mph - N/A   Scattered Clouds
4:53 AM 33.1 °F 23.4 °F 28.9 °F 85% 29.59 in 10.0 mi SE 13.8 mph - N/A   Clear
5:53 AM 33.1 °F 24.4 °F 28.0 °F 82% 29.57 in 10.0 mi SE 11.5 mph - N/A   Overcast
6:53 AM 33.1 °F 23.9 °F 28.0 °F 82% 29.52 in 10.0 mi SE 12.7 mph - N/A   Overcast
7:53 AM 33.1 °F 23.9 °F 28.0 °F 82% 29.51 in 10.0 mi SE 12.7 mph - N/A   Scattered Clouds
8:53 AM 34.0 °F 26.0 °F 28.0 °F 79% 29.50 in 10.0 mi SSE 10.4 mph - N/A   Overcast
9:53 AM 35.1 °F 27.4 °F 27.0 °F 72% 29.48 in 10.0 mi SSE 10.4 mph - N/A   Overcast
10:05 AM 33.8 °F 25.3 °F 28.4 °F 81% 29.41 in 2.5 mi SE 11.5 mph - 0.00 in Snow Light Snow
10:13 AM 33.8 °F 25.8 °F 28.4 °F 81% 29.41 in 1.0 mi SE 10.4 mph - 0.00 in Snow Light Snow
10:53 AM 33.1 °F 27.7 °F 30.0 °F 89% 29.48 in 2.5 mi SSE 5.8 mph - 0.02 in Snow Light Snow
10:58 AM 33.8 °F 29.6 °F 30.2 °F 87% 29.41 in 1.8 mi South 4.6 mph - 0.00 in Snow Light Snow
11:16 AM 33.8 °F 30.8 °F 30.2 °F 87% 29.40 in 0.8 mi South 3.5 mph - 0.01 in Snow Light Snow
11:25 AM 33.8 °F 30.8 °F 30.2 °F 87% 29.41 in 1.2 mi SW 3.5 mph - 0.01 in Snow Light Snow
11:40 AM 33.8 °F 28.6 °F 32.0 °F 93% 29.40 in 1.8 mi WSW 5.8 mph - 0.01 in Snow Light Snow
11:45 AM 33.8 °F 28.6 °F 32.0 °F 93% 29.40 in 3.0 mi WSW 5.8 mph - 0.01 in Snow Light Snow
11:53 AM 34.0 °F 29.8 °F 32.0 °F 92% 29.48 in 6.0 mi West 4.6 mph - 0.01 in   Overcast
12:53 PM 35.1 °F 22.5 °F 33.1 °F 92% 29.49 in 6.0 mi WNW 26.5 mph 31.1 mph 0.00 in Snow Light Snow
1:25 PM 35.6 °F 21.7 °F 30.2 °F 81% 29.45 in 6.0 mi NW 34.5 mph 43.7 mph 0.00 in Snow Light Snow
1:35 PM 35.6 °F 22.5 °F 30.2 °F 81% 29.46 in 1.8 mi NW 29.9 mph 39.1 mph 0.00 in Snow Light Snow
1:47 PM 33.8 °F 20.1 °F 30.2 °F 87% 29.47 in 0.8 mi NW 29.9 mph 38.0 mph 0.01 in Snow Light Snow
1:53 PM 33.1 °F 18.2 °F 28.9 °F 85% 29.54 in 0.8 mi NW 34.5 mph 39.1 mph 0.01 in Snow Light Snow
2:19 PM 30.2 °F 13.9 °F 26.6 °F 86% 29.50 in 0.5 mi NW 36.8 mph 43.7 mph 0.00 in Fog , Snow Snow
2:25 PM 30.2 °F 14.3 °F 26.6 °F 86% 29.50 in 1.5 mi NW 34.5 mph 43.7 mph 0.01 in Snow Light Snow
2:29 PM 30.2 °F 14.1 °F 26.6 °F 86% 29.50 in 3.0 mi NW 35.7 mph 46.0 mph 0.01 in Snow Light Snow
2:53 PM 32.0 °F 17.0 °F 27.0 °F 82% 29.58 in 10.0 mi NW 33.4 mph 44.9 mph 0.01 in   Overcast
3:28 PM 32.0 °F 17.0 °F 24.8 °F 75% 29.56 in 10.0 mi NW 33.4 mph 48.3 mph N/A   Overcast
3:53 PM 30.0 °F 13.8 °F 23.0 °F 75% 29.65 in 10.0 mi NW 35.7 mph 42.6 mph 0.00 in   Overcast
4:19 PM 28.4 °F 12.7 °F 21.2 °F 74% 29.62 in 2.5 mi NW 29.9 mph 46.0 mph 0.00 in Snow Light Snow
4:38 PM 26.6 °F 9.1 °F 19.4 °F 74% 29.64 in 5.0 mi NW 35.7 mph 50.6 mph 0.00 in Snow Light Snow
4:53 PM 26.1 °F 8.4 °F 18.0 °F 71% 29.73 in 6.0 mi NW 35.7 mph 44.9 mph 0.00 in Snow Light Snow
5:14 PM 26.6 °F 11.1 °F 19.4 °F 74% 29.68 in 10.0 mi NW 26.5 mph 38.0 mph 0.00 in   Overcast
5:46 PM 24.8 °F 8.7 °F 17.6 °F 74% 29.71 in 10.0 mi NW 26.5 mph 34.5 mph 0.00 in   Overcast
5:53 PM 24.1 °F 8.7 °F 17.1 °F 75% 29.79 in 10.0 mi NW 23.0 mph 34.5 mph 0.00 in   Overcast
6:27 PM 23.0 °F 5.7 °F 14.0 °F 68% 29.73 in 9.0 mi NNW 28.8 mph 40.3 mph 0.00 in   Overcast
6:53 PM 21.0 °F 4.3 °F 12.9 °F 71% 29.84 in 10.0 mi NNW 24.2 mph - 0.00 in   Overcast
7:29 PM 19.4 °F 3.6 °F 12.2 °F 74% 29.76 in 10.0 mi NNW 19.6 mph - N/A   Mostly Cloudy
7:53 PM 19.0 °F 3.6 °F 12.0 °F 74% 29.88 in 10.0 mi NNW 18.4 mph - N/A   Mostly Cloudy
8:24 PM 17.6 °F 1.7 °F 10.4 °F 73% 29.81 in 10.0 mi NNW 18.4 mph - N/A   Scattered Clouds
8:53 PM 18.0 °F 1.3 °F 10.0 °F 71% 29.92 in 10.0 mi NW 20.7 mph 25.3 mph N/A   Scattered Clouds
9:53 PM 17.1 °F 3.0 °F 9.0 °F 71% 29.96 in 10.0 mi NNW 13.8 mph - N/A   Overcast
10:08 PM 15.8 °F 0.3 °F 8.6 °F 73% 29.88 in 10.0 mi North 16.1 mph - N/A   Overcast
10:29 PM 15.8 °F 0.3 °F 6.8 °F 68% 29.89 in 7.0 mi NNW 16.1 mph - 0.00 in Snow Light Snow
10:53 PM 14.0 °F -4.3 °F 6.1 °F 71% 29.99 in 5.0 mi NNW 21.9 mph 25.3 mph 0.00 in Snow Light Snow
11:15 PM 12.2 °F -4.3 °F 6.8 °F 79% 29.90 in 7.0 mi NNW 16.1 mph - 0.00 in Snow Light Snow
11:53 PM 12.9 °F -3.9 °F 6.1 °F 74% 30.02 in 10.0 mi NW 17.3 mph - 0.00 in   Overcast